Hourly Data Report for October 08, 2014

All times are specified in Local Standard Time (LST). Add 1 hour to adjust for Daylight Saving Time where and when it is observed.

GRISE FIORD CLIMATE
NUNAVUT

76°25'22.040" N
82°54'08.020" W
44.50 m
2402351
71971
NGC

Download Data

Hourly Data (October 2014)
Hourly Data Report for October 8, 2014
Temp Definition
°C
Dew Point Temp Definition
°C
Rel Hum Definition
%
Wind Dir Definition
10's deg

Wind Spd Definition
km/h
Visibility Definition
km
Stn Press Definition
kPa
Hmdx Definition


Wind Chill Definition


Weather Definition


TIME
00:00 -6.1 -12.9 58 5 7   102.86   -9 LegendNANA
01:00 -7.8 -14.2 60 5 6   102.84   -11 LegendNANA
02:00 -7.6 -13.0 65 11 4   102.82   -10 LegendNANA
03:00 -7.6 -13.4 63 9 5   102.79   -10 LegendNANA
04:00 -8.7 -12.6 73 10 10   102.80   -14 LegendNANA
05:00 -8.2 -12.1 74 11 10   102.78   -13 LegendNANA
06:00 -9.7 -13.0 77 8 6   102.74   -13 LegendNANA
07:00 -9.9 -13.0 78 10 8   102.70   -14 LegendNANA
08:00 -9.4 -12.6 77 10 8   102.68   -14 LegendNANA
09:00 -9.4 -12.5 78 10 7   102.67   -13 LegendNANA
10:00 -8.6 -13.7 67 3 6   102.65   -12 LegendNANA
11:00 -8.0 -12.3 71 7 4   102.61   -10 LegendNANA
12:00 -7.2 -12.4 67 6 5   102.58   -10 LegendNANA
13:00 -7.1 -12.3 66 5 5   102.54   -10 LegendNANA
14:00 -5.7 -11.8 62 24 3   102.51   -7 LegendNANA
15:00 -6.3 -11.4 67 14 7   102.47   -10 LegendNANA
16:00 -7.2 -11.0 75 11 11   102.45   -12 LegendNANA
17:00 -7.7 -11.4 74 9 4   102.44   -10 LegendNANA
18:00 -8.0 -12.3 71 3 5   102.41   -11 LegendNANA
19:00 -7.9 -12.5 69 6 8   102.36   -12 LegendNANA
20:00 -9.4 -12.2 80 10 7   102.33   -13 LegendNANA
21:00 -8.6 -11.0 82 10 4   102.29   -11 LegendNANA
22:00 -8.3 -11.4 78 4 6   102.28   -12 LegendNANA
23:00 -8.5 -10.8 83 4 7   102.23   -12 LegendNANA

Notes on Data Quality.

Legend

  • E = Estimated
  • M = Missing
  • NA = Not Available
  • ‡ = Partner data that is not subject to review by the National Climate Archives
Date modified: